sat.trackr.live / text

‹ back to catalog

STARLINK-34403

NORAD 64443 · 2025-130F

PAYLOAD ACTIVE UNKNOWN

§ Identity

Operator
Country
US
Launch date
2025-06-18
Launch site
AFETR
Launch vehicle
Mass (kg)
RCS (m²)

Purposes: comms

External: N2YO · Heavens-Above · Gunter

§ Orbital elements

Epoch: 2026-05-25T03:44:28.947840Z

Period
94.11 min
Inclination
53.1584°
Eccentricity
0.0001023
Mean motion
15.30204540 rev/d
Perigee alt
474.5 km
Apogee alt
475.9 km
Semi-major
6,853.3 km
B*
8.9631e-4
RAAN
93.1243°
Arg perigee
89.9477°
Mean anomaly
270.1641°
Rev number
5,241

§ Raw data

STARLINK-344031 64443U 25130F   26145.15589060  .00026285  00000+0  89631-3 0  99962 64443  53.1584  93.1243 0001023  89.9477 270.1641 15.30204540 52418

JSON: /api/v1/satellites/64443 · /tle

For live sub-satellite position, see the globe view (requires WebGL).

§ Visibility from observer

Set your observer location to see the next 7 days of passes ≥ 10°. The values pass through the URL so the page stays shareable.

No JS? Fill the form by hand. The geolocation button needs JavaScript.